K0WOI Weather Reports


Display with metric or nautical units.
time (UTC)temp
F
wind
direction
speed
MPH
gust
MPH
rain 1hr
in
rain 24hr
in
rain mn
in
humidity
%
barometer
mb
20260902110627 71 80 0.0 0.0 0.00 0.00 0.00 95 1013.4
20260902110124 71 80 1.0 1.0 0.00 0.00 0.00 95 1013.2
20260902105623 71 81 0.0 0.0 0.00 0.00 0.00 94 1013.2
20260902105118 71 81 0.0 0.0 0.00 0.00 0.00 93 1013.3
20260902104614 72 81 0.0 0.0 0.00 0.00 0.00 93 1013.2
20260902104109 72 81 0.0 0.0 0.00 0.00 0.00 93 1013.4
20260902103608 72 81 0.0 0.0 0.00 0.00 0.00 92 1013.5
20260902103104 72 81 0.0 0.0 0.00 0.00 0.00 92 1013.3
20260902102555 73 81 1.0 1.0 0.00 0.00 0.00 91 1013.6
20260902102051 73 81 1.0 1.0 0.00 0.00 0.00 91 1013.7
20260902101547 73 80 1.0 1.0 0.00 0.00 0.00 90 1013.8
20260902101045 73 80 0.0 1.0 0.00 0.00 0.00 89 1013.8
20260902100545 73 80 0.0 0.0 0.00 0.00 0.00 87 1013.7
20260902100040 74 80 0.0 1.0 0.00 0.00 0.00 86 1013.8
20260902095540 74 79 1.0 1.0 0.00 0.00 0.00 84 1013.8
20260902095038 74 79 1.0 1.0 0.00 0.00 0.00 84 1014.0
20260902094535 75 80 1.0 1.0 0.00 0.00 0.00 84 1013.6
20260902094030 75 79 1.0 2.0 0.00 0.00 0.00 82 1013.7
20260902093525 75 79 0.0 1.0 0.00 0.00 0.00 82 1013.7
20260902093025 75 79 0.0 0.0 0.00 0.00 0.00 81 1013.3
20260902092520 75 79 1.0 1.0 0.00 0.00 0.00 80 1013.4
20260902092015 76 79 1.0 1.0 0.00 0.00 0.00 79 1013.6
20260902091510 76 79 1.0 1.0 0.00 0.00 0.00 78 1013.3
20260902091006 77 77 1.0 2.0 0.00 0.00 0.00 77 1013.4
20260902090501 77 78 4.0 6.0 0.00 0.00 0.00 76 1013.6
20260902090000 75 85 3.0 5.0 0.00 0.00 0.00 75 1012.6
20260902085455 75 79 2.0 2.0 0.00 0.00 0.00 81 1013.0
20260902084950 76 81 0.0 0.0 0.00 0.00 0.00 79 1011.8
20260902084447 76 81 1.0 1.0 0.00 0.00 0.00 79 1011.7
20260902083943 75 82 2.0 3.0 0.00 0.00 0.00 79 1011.6
20260902083442 76 82 0.0 1.0 0.00 0.00 0.00 80 1011.8
20260902082937 76 82 1.0 2.0 0.00 0.00 0.00 79 1011.8
20260902082433 76 81 1.0 1.0 0.00 0.00 0.00 79 1011.9
20260902081929 76 81 0.0 0.0 0.00 0.00 0.00 79 1011.7
20260902081426 76 81 0.0 1.0 0.00 0.00 0.00 79 1011.7
20260902080920 76 82 0.0 0.0 0.00 0.00 0.00 78 1011.9
20260902080416 76 82 0.0 0.0 0.00 0.00 0.00 78 1011.8
20260902075915 77 82 1.0 1.0 0.00 0.00 0.00 77 1011.9
20260902075412 77 82 2.0 2.0 0.00 0.00 0.00 77 1011.9
20260902074907 77 82 1.0 1.0 0.00 0.00 0.00 77 1011.9
20260902074403 77 82 1.0 1.0 0.00 0.00 0.00 77 1011.9
20260902073857 77 82 1.0 1.0 0.00 0.00 0.00 78 1012.0
20260902073354 77 81 0.0 1.0 0.00 0.00 0.00 78 1012.0
20260902072849 77 81 1.0 1.0 0.00 0.00 0.00 77 1011.9
20260902072345 77 81 0.0 1.0 0.00 0.00 0.00 77 1011.5
20260902071842 77 81 0.0 1.0 0.00 0.00 0.00 77 1011.7
20260902071341 77 82 2.0 3.0 0.00 0.00 0.00 77 1011.7
20260902070837 77 81 1.0 1.0 0.00 0.00 0.00 77 1011.6
20260902070332 77 82 2.0 3.0 0.00 0.00 0.00 77 1011.4
20260902065830 77 82 1.0 2.0 0.00 0.00 0.00 78 1011.4
20260902065326 77 82 1.0 1.0 0.00 0.00 0.00 78 1011.4
20260902064821 77 81 1.0 1.0 0.00 0.00 0.00 77 1011.2
20260902064317 77 81 1.0 1.0 0.00 0.00 0.00 78 1011.2
20260902063812 77 82 1.0 2.0 0.00 0.00 0.00 78 1011.2
20260902063307 77 81 0.0 1.0 0.00 0.00 0.00 78 1011.0
20260902062801 77 81 0.0 1.0 0.00 0.00 0.00 79 1011.0
20260902062256 77 81 1.0 1.0 0.00 0.00 0.00 79 1011.2
20260902061755 77 81 1.0 1.0 0.00 0.00 0.00 79 1011.2
20260902061250 77 81 1.0 1.0 0.00 0.00 0.00 79 1011.0
20260902060748 77 81 0.0 1.0 0.00 0.00 0.00 79 1011.2
20260902060242 77 81 0.0 0.0 0.00 0.00 0.00 79 1011.2
20260902055738 78 81 1.0 1.0 0.00 0.00 0.00 79 1011.3
20260902055234 78 81 0.0 1.0 0.00 0.00 0.00 79 1011.2
20260902054729 77 81 1.0 1.0 0.00 0.00 0.00 79 1011.2
20260902054225 78 81 1.0 1.0 0.00 0.00 0.00 80 1011.5
20260902053720 78 81 2.0 2.0 0.00 0.00 0.00 79 1011.6
20260902053220 78 82 2.0 3.0 0.00 0.00 0.00 79 1011.6
20260902052719 78 82 2.0 2.0 0.00 0.00 0.00 80 1011.9
20260902052215 78 81 1.0 1.0 0.00 0.00 0.00 80 1011.7
20260902051714 78 81 1.0 1.0 0.00 0.00 0.00 79 1011.7
20260902051209 78 81 1.0 1.0 0.00 0.00 0.00 80 1011.8
20260902050703 78 81 1.0 1.0 0.00 0.00 0.00 80 1011.8
20260902050159 78 81 0.0 0.0 0.00 0.00 0.00 80 1011.7
20260902045653 78 81 1.0 1.0 0.00 0.00 0.00 80 1011.8
20260902045149 78 81 0.0 1.0 0.00 0.00 0.00 81 1011.8
20260902044643 78 81 1.0 1.0 0.00 0.00 0.00 81 1011.9
20260902044140 78 81 1.0 1.0 0.00 0.00 0.00 81 1011.7
20260902043635 78 81 0.0 0.0 0.00 0.00 0.00 81 1011.6
20260902043130 78 81 2.0 5.0 0.00 0.00 0.00 81 1011.9
20260902042629 78 81 1.0 1.0 0.00 0.00 0.00 81 1011.7
20260902042125 78 81 0.0 0.0 0.00 0.00 0.00 82 1011.7
20260902041625 78 81 0.0 0.0 0.00 0.00 0.00 82 1011.7
20260902041119 79 81 0.0 0.0 0.00 0.00 0.00 82 1011.8
20260902040619 79 81 0.0 0.0 0.00 0.00 0.00 82 1011.6
20260902040114 79 81 0.0 0.0 0.00 0.00 0.00 82 1011.5
20260902035612 79 81 0.0 0.0 0.00 0.00 0.00 82 1011.7
20260902035108 79 81 0.0 1.0 0.00 0.00 0.00 82 1011.9
20260902034607 79 81 0.0 0.0 0.00 0.00 0.00 81 1011.7
20260902034101 80 81 1.0 1.0 0.00 0.00 0.00 81 1012.0
20260902033600 80 81 0.0 1.0 0.00 0.00 0.00 80 1011.9
20260902033055 80 81 0.0 0.0 0.00 0.00 0.00 80 1012.0
20260902032554 80 81 0.0 0.0 0.00 0.00 0.00 80 1011.8
20260902032049 80 81 0.0 0.0 0.00 0.00 0.00 79 1011.7
20260902031544 80 81 1.0 1.0 0.00 0.00 0.00 79 1012.1
20260902031040 80 81 0.0 0.0 0.00 0.00 0.00 79 1011.9
20260902030534 81 81 1.0 1.0 0.00 0.00 0.00 79 1011.9
20260902030034 81 81 0.0 1.0 0.00 0.00 0.00 79 1011.6
20260902025529 81 81 0.0 1.0 0.00 0.00 0.00 79 1011.7
20260902025024 81 81 1.0 1.0 0.00 0.00 0.00 80 1011.4
20260902024520 81 81 0.0 1.0 0.00 0.00 0.00 80 1011.3
20260902024019 81 81 0.0 1.0 0.00 0.00 0.00 80 1011.5
20260902023515 81 81 0.0 1.0 0.00 0.00 0.00 80 1011.4
20260902023016 81 81 0.0 1.0 0.00 0.00 0.00 80 1011.2
20260902022510 81 81 0.0 0.0 0.00 0.00 0.00 80 1011.2
20260902022006 81 81 0.0 0.0 0.00 0.00 0.00 79 1011.3
20260902021501 81 81 0.0 0.0 0.00 0.00 0.00 79 1011.3
20260902020956 81 81 0.0 0.0 0.00 0.00 0.00 80 1011.4
20260902020452 81 81 0.0 0.0 0.00 0.00 0.00 81 1011.2
20260902015947 81 81 0.0 0.0 0.00 0.00 0.00 81 1011.0
20260902015443 80 81 1.0 1.0 0.00 0.00 0.00 82 1010.9
20260902014938 79 81 1.0 1.0 0.00 0.00 0.00 87 1011.0
20260902014435 79 81 0.0 0.0 0.00 0.00 0.00 89 1010.9
20260902013934 80 81 0.0 0.0 0.00 0.00 0.00 89 1010.6
20260902013430 80 81 0.0 0.0 0.00 0.00 0.00 88 1010.6
20260902012925 81 81 0.0 0.0 0.00 0.00 0.00 87 1010.8
20260902012420 82 81 0.0 0.0 0.00 0.00 0.00 85 1010.7
20260902011916 82 81 0.0 0.0 0.00 0.00 0.00 83 1010.7
20260902011411 83 81 0.0 0.0 0.00 0.00 0.00 81 1010.7
20260902010910 82 81 0.0 0.0 0.00 0.00 0.00 78 1010.6
20260902010405 82 81 0.0 0.0 0.00 0.00 0.00 83 1010.6
20260902005904 83 81 0.0 0.0 0.00 0.00 0.00 80 1010.5
20260902005359 84 82 0.0 0.0 0.00 0.00 0.00 77 1010.7
20260902004854 84 82 0.0 0.0 0.00 0.00 0.00 75 1010.6
20260902004354 85 82 0.0 0.0 0.00 0.00 0.00 74 1010.5
20260902003849 85 82 0.0 0.0 0.00 0.00 0.00 74 1010.6
20260902003344 86 82 0.0 0.0 0.00 0.00 0.00 73 1010.5
20260902002840 86 82 0.0 0.0 0.00 0.00 0.00 73 1010.5
20260902002339 86 82 0.0 0.0 0.00 0.00 0.00 72 1010.6
20260902001835 87 82 0.0 0.0 0.00 0.00 0.00 73 1010.5
20260902001329 87 82 0.0 0.0 0.00 0.00 0.00 73 1010.7
20260902000824 88 82 0.0 0.0 0.00 0.00 0.00 72 1010.7
20260902000322 89 82 0.0 0.0 0.00 0.00 0.00 70 1010.8
20260901235814 89 82 0.0 0.0 0.00 0.00 0.00 69 1010.7
20260901235308 89 83 0.0 0.0 0.00 0.00 0.00 68 1010.6
20260901234808 90 83 0.0 0.0 0.00 0.00 0.00 67 1010.8
20260901234303 90 83 0.0 1.0 0.00 0.00 0.00 66 1010.6
20260901233758 91 83 1.0 1.0 0.00 0.00 0.00 65 1010.7
20260901233253 91 83 0.0 1.0 0.00 0.00 0.00 65 1010.8
20260901232749 91 83 1.0 1.0 0.00 0.00 0.00 64 1010.8
20260901232244 91 83 1.0 1.0 0.00 0.00 0.00 63 1010.7
20260901231740 92 83 2.0 3.0 0.00 0.00 0.00 63 1010.8
20260901231236 92 83 0.0 1.0 0.00 0.00 0.00 64 1010.9
20260901230731 93 83 0.0 1.0 0.00 0.00 0.00 62 1011.0
20260901230225 94 83 1.0 1.0 0.00 0.00 0.00 63 1011.0
20260901225720 94 83 0.0 1.0 0.00 0.00 0.00 59 1011.0
20260901225215 94 83 1.0 1.0 0.00 0.00 0.00 60 1011.0
20260901224711 94 83 1.0 1.0 0.00 0.00 0.00 60 1010.7
20260901224207 95 83 0.0 0.0 0.00 0.00 0.00 59 1011.0
20260901223703 95 83 1.0 2.0 0.00 0.00 0.00 58 1010.7
20260901223158 94 83 1.0 1.0 0.00 0.00 0.00 58 1010.8
20260901222654 95 83 0.0 0.0 0.00 0.00 0.00 62 1010.8
20260901222150 95 83 1.0 1.0 0.00 0.00 0.00 58 1010.9
20260901221645 95 83 2.0 2.0 0.00 0.00 0.00 56 1011.0
20260901221141 94 84 2.0 2.0 0.00 0.00 0.00 54 1011.2
20260901220639 95 83 3.0 5.0 0.00 0.00 0.00 54 1010.8
20260901220139 94 84 2.0 2.0 0.00 0.00 0.00 59 1011.0
20260901215637 95 84 2.0 2.0 0.00 0.00 0.00 57 1011.3
20260901215132 96 83 0.0 1.0 0.00 0.00 0.00 57 1011.2
20260901214630 96 84 1.0 2.0 0.00 0.00 0.00 54 1011.2
20260901214124 95 83 1.0 1.0 0.00 0.00 0.00 55 1011.4
20260901213619 95 84 1.0 1.0 0.00 0.00 0.00 56 1011.3
20260901213114 95 84 1.0 1.0 0.00 0.00 0.00 55 1011.6
20260901212613 95 84 1.0 2.0 0.00 0.00 0.00 54 1011.2
20260901212110 96 84 3.0 3.0 0.00 0.00 0.00 51 1011.5
20260901211604 95 84 1.0 2.0 0.00 0.00 0.00 57 1011.5
20260901211101 96 84 2.0 2.0 0.00 0.00 0.00 54 1011.6
20260901210556 96 84 1.0 1.0 0.00 0.00 0.00 55 1011.6
20260901210053 95 84 0.0 1.0 0.00 0.00 0.00 57 1011.5
20260901205548 95 84 2.0 2.0 0.00 0.00 0.00 56 1011.7
20260901205047 95 84 0.0 1.0 0.00 0.00 0.00 57 1011.8
20260901204544 95 84 1.0 1.0 0.00 0.00 0.00 54 1011.9
20260901204039 95 84 2.0 2.0 0.00 0.00 0.00 52 1011.8
20260901203539 96 84 1.0 1.0 0.00 0.00 0.00 56 1011.7
20260901203034 95 84 0.0 1.0 0.00 0.00 0.00 52 1011.9
20260901202528 95 84 0.0 1.0 0.00 0.00 0.00 56 1011.9
20260901202025 95 84 1.0 1.0 0.00 0.00 0.00 54 1011.9
20260901201520 95 84 1.0 1.0 0.00 0.00 0.00 55 1012.1
20260901201015 94 84 3.0 3.0 0.00 0.00 0.00 57 1012.1
20260901200514 94 84 2.0 2.0 0.00 0.00 0.00 57 1012.0
20260901200009 93 83 1.0 1.0 0.00 0.00 0.00 59 1012.1
20260901195507 94 84 2.0 2.0 0.00 0.00 0.00 56 1012.3
20260901195006 93 84 2.0 2.0 0.00 0.00 0.00 54 1012.2
20260901194501 93 83 1.0 1.0 0.00 0.00 0.00 59 1012.3
20260901193957 93 84 0.0 1.0 0.00 0.00 0.00 55 1012.5
20260901193456 93 84 1.0 2.0 0.00 0.00 0.00 56 1012.4
20260901192956 93 84 2.0 2.0 0.00 0.00 0.00 56 1012.4
20260901192452 93 84 1.0 1.0 0.00 0.00 0.00 58 1012.6
20260901191948 93 84 2.0 3.0 0.00 0.00 0.00 56 1012.7
20260901191443 92 83 0.0 1.0 0.00 0.00 0.00 57 1012.5
20260901190939 91 85 4.0 5.0 0.00 0.00 0.00 58 1012.6
20260901190434 91 84 4.0 5.0 0.00 0.00 0.00 56 1013.0
20260901185932 91 83 2.0 3.0 0.00 0.00 0.00 56 1012.7
20260901185431 91 83 0.0 1.0 0.00 0.00 0.00 57 1012.6
20260901184926 91 83 1.0 1.0 0.00 0.00 0.00 54 1012.7
20260901184421 90 83 1.0 2.0 0.00 0.00 0.00 60 1012.9
20260901183917 90 83 2.0 2.0 0.00 0.00 0.00 58 1012.9
20260901183416 90 83 1.0 2.0 0.00 0.00 0.00 57 1013.0
20260901182912 90 83 1.0 2.0 0.00 0.00 0.00 59 1013.0
20260901182407 90 85 3.0 5.0 0.00 0.00 0.00 58 1013.1
20260901181857 90 83 1.0 1.0 0.00 0.00 0.00 59 1013.2
20260901181357 90 83 1.0 1.0 0.00 0.00 0.00 60 1013.4
20260901180855 90 83 1.0 2.0 0.00 0.00 0.00 60 1013.3
20260901180355 89 83 1.0 2.0 0.00 0.00 0.00 61 1013.4
20260901175853 89 84 3.0 3.0 0.00 0.00 0.00 61 1013.5
20260901175348 89 84 2.0 3.0 0.00 0.00 0.00 60 1013.5
20260901174843 90 83 0.0 0.0 0.00 0.00 0.00 63 1013.4
20260901174339 89 84 3.0 3.0 0.00 0.00 0.00 60 1013.6
20260901173835 89 83 3.0 3.0 0.00 0.00 0.00 63 1013.5
20260901173329 89 83 2.0 2.0 0.00 0.00 0.00 62 1013.3
20260901172826 89 83 0.0 1.0 0.00 0.00 0.00 60 1013.6
20260901172325 89 83 1.0 1.0 0.00 0.00 0.00 63 1013.5
20260901171823 89 83 1.0 1.0 0.00 0.00 0.00 64 1013.7
20260901171322 88 84 3.0 3.0 0.00 0.00 0.00 63 1013.4
20260901170817 88 84 3.0 3.0 0.00 0.00 0.00 61 1013.5
20260901170317 88 83 2.0 2.0 0.00 0.00 0.00 61 1013.6
20260901165816 88 83 2.0 3.0 0.00 0.00 0.00 63 1013.4
20260901165310 88 83 1.0 1.0 0.00 0.00 0.00 64 1013.6
20260901164807 88 82 2.0 2.0 0.00 0.00 0.00 65 1013.7
20260901164302 88 82 0.0 0.0 0.00 0.00 0.00 65 1013.6
20260901163757 87 82 0.0 1.0 0.00 0.00 0.00 68 1013.7
20260901163257 87 82 0.0 1.0 0.00 0.00 0.00 70 1013.7
20260901162752 87 82 2.0 2.0 0.00 0.00 0.00 68 1013.8
20260901162251 86 83 3.0 3.0 0.00 0.00 0.00 67 1013.4
20260901161750 86 82 1.0 1.0 0.00 0.00 0.00 68 1013.7
20260901161244 86 82 1.0 1.0 0.00 0.00 0.00 67 1013.6
20260901160741 86 82 2.0 2.0 0.00 0.00 0.00 66 1013.6
20260901160236 86 82 3.0 3.0 0.00 0.00 0.00 68 1013.6
20260901155735 86 82 2.0 2.0 0.00 0.00 0.00 71 1013.5
20260901155230 86 82 2.0 2.0 0.00 0.00 0.00 68 1013.6
20260901154725 85 82 0.0 0.0 0.00 0.00 0.00 71 1013.5
20260901154221 85 82 2.0 3.0 0.00 0.00 0.00 71 1013.4
20260901153716 85 82 2.0 2.0 0.00 0.00 0.00 70 1013.5
20260901153209 84 82 1.0 1.0 0.00 0.00 0.00 73 1013.6
20260901152704 84 82 1.0 2.0 0.00 0.00 0.00 74 1013.3
20260901152203 84 82 0.0 1.0 0.00 0.00 0.00 76 1013.2
20260901151659 83 82 2.0 3.0 0.00 0.00 0.00 76 1013.4
20260901151158 83 82 2.0 2.0 0.00 0.00 0.00 75 1013.3
20260901150657 84 82 3.0 5.0 0.00 0.00 0.00 75 1013.6
20260901150155 83 82 1.0 2.0 0.00 0.00 0.00 76 1013.5
20260901145654 82 82 0.0 0.0 0.00 0.00 0.00 77 1013.7
20260901145154 82 82 1.0 1.0 0.00 0.00 0.00 80 1013.4
20260901144649 82 82 2.0 2.0 0.00 0.00 0.00 84 1013.5
20260901144144 80 81 0.0 0.0 0.00 0.00 0.00 86 1013.6
20260901143639 79 81 0.0 0.0 0.00 0.00 0.00 87 1013.6
20260901143136 79 81 0.0 1.0 0.00 0.00 0.00 88 1013.6
20260901142632 78 81 1.0 1.0 0.00 0.00 0.00 88 1013.6
20260901142131 78 81 1.0 2.0 0.00 0.00 0.00 91 1013.7
20260901141625 77 81 0.0 1.0 0.00 0.00 0.00 92 1013.6
20260901141120 76 81 0.0 1.0 0.00 0.00 0.00 94 1013.7
20260901140619 76 80 0.0 0.0 0.00 0.00 0.00 96 1013.7
20260901140118 75 80 0.0 1.0 0.00 0.00 0.00 98 1013.8
20260901135618 75 79 0.0 0.0 0.00 0.00 0.00 99 1013.9
20260901135113 74 79 0.0 0.0 0.00 0.00 0.00 99 1013.9
20260901134609 74 79 0.0 0.0 0.00 0.00 0.00 99 1013.8
20260901134104 74 79 0.0 0.0 0.00 0.00 0.00 99 1013.7
20260901133603 74 79 0.0 0.0 0.00 0.00 0.00 99 1013.9
20260901133102 74 79 0.0 0.0 0.00 0.00 0.00 99 1013.9
20260901132557 73 79 0.0 0.0 0.00 0.00 0.00 99 1013.8
20260901132051 73 79 0.0 0.0 0.00 0.00 0.00 99 1013.8
20260901131551 73 79 0.0 0.0 0.00 0.00 0.00 99 1013.9
20260901131045 73 79 0.0 0.0 0.00 0.00 0.00 99 1013.7
20260901130540 73 79 0.0 0.0 0.00 0.00 0.00 99 1013.8
20260901130038 73 79 0.0 0.0 0.00 0.00 0.00 99 1013.5
20260901125537 73 79 0.0 0.0 0.00 0.00 0.00 99 1013.6
20260901125033 73 79 0.0 0.0 0.00 0.00 0.00 99 1013.7
20260901124532 73 79 0.0 0.0 0.00 0.00 0.00 99 1013.6
20260901124027 73 79 0.0 0.0 0.00 0.00 0.00 99 1013.3
20260901123522 73 79 0.0 0.0 0.00 0.00 0.00 99 1013.4
20260901123021 73 79 0.0 0.0 0.00 0.00 0.00 99 1013.5
20260901122520 73 79 0.0 0.0 0.00 0.00 0.00 99 1013.4
20260901122014 73 79 0.0 0.0 0.00 0.00 0.00 99 1013.4
20260901121509 73 79 0.0 0.0 0.00 0.00 0.00 99 1013.5
20260901121004 73 79 0.0 0.0 0.00 0.00 0.00 99 1013.2
20260901120504 73 79 0.0 0.0 0.00 0.00 0.00 99 1013.5
20260901115959 72 80 0.0 0.0 0.00 0.00 0.00 99 1013.2
20260901115454 72 80 0.0 0.0 0.00 0.00 0.00 99 1013.4
20260901114952 72 80 0.0 0.0 0.00 0.00 0.00 99 1013.2
20260901114447 72 80 0.0 0.0 0.00 0.00 0.00 99 1013.3
20260901113945 72 80 0.0 0.0 0.00 0.00 0.00 99 1013.3
20260901113444 71 80 0.0 0.0 0.00 0.00 0.00 99 1013.4
20260901112939 72 80 0.0 0.0 0.00 0.00 0.00 99 1013.2
20260901112435 72 80 0.0 0.0 0.00 0.00 0.00 99 1013.3
20260901111924 72 80 0.0 0.0 0.00 0.00 0.00 99 1013.6
20260901111422 72 80 0.0 0.0 0.00 0.00 0.00 99 1013.2
20260901110921 71 80 0.0 0.0 0.00 0.00 0.00 99 1013.1